Location: Foulognes
(49.1413°N, 0.8183°W)
Time: 01:57:45
(UTC+00:00)

STARLINK-48 - Pass Details

Date: 21 October 2019
Orbit: 506 x 508 km, 53.0° (Epoch: 14 November)

Event Time Altitude Azimuth Distance (km) Brightness Sun altitude
Rises 17:48:57 0° 282° (WNW) 2,609 8.7 -8.3°
Reaches altitude 10° 17:51:12 10° 289° (WNW) 1,724 7.3 -8.7°
Maximum altitude 17:54:59 47° 4° (N) 684 4.0 -9.3°
Enters shadow 17:58:12 14° 76° (ENE) 1,512 5.2 -9.8°
